Home > Time Zones > World Clock > Weather > Russia > Perm > Past weeks

Flag for Russia Weather past 2 weeks in Perm, Russia

Now
77 °F

Sunny.


Feels Like: 79 °F
Forecast: 59 / 74 °F
Wind: 13 mph from Southwest

Location: Perm'/Bolshoe Savino

Current Time: Jul 30, 2015 at 5:38:24 PM

Latest Report: Jul 30, 2015 at 5:00 PM


Visibility: 10 mi

Pressure: 29.71 "Hg

Humidity: 57%

Dew point: 61 °F

Location of PermLocation

Historic Weather in Perm — Graph

°F

Perm temperature yesterday

Maximum temperature yesterday: 73 °F (at 2:00 PM)
Minimum temperature yesterday: 48 °F (at 5:00 AM)
Average temperature yesterday: 63 °F

Past Weeks' High & Low Weather Summary

 TemperatureHumidityPressure
High81 °F (Jul 30, 12:00 PM)100% (Jul 16, 3:00 AM)29.92 "Hg (Jul 16, 3:00 AM)
Low48 °F (Jul 18, 4:30 AM)36% (Jul 24, 2:30 PM)29.45 "Hg (Jul 22, 7:00 AM)
Average61 °F78%29.72 "Hg
* Reported Jul 15 4:00 PM — Jul 30 4:30 PM, Perm, Weather by CustomWeather, © 2015

Note: Actual official high and low records may vary slightly from our data, if they occured in-between our weather recording intervals... More about our weather records

Advertising

Perm weather history for previous 24 hours

 ConditionsComfort  
Time TempWeatherWind HumidityBarometerVisibility
4:30 PM
Thu, Jul 30
75 °FSunny.10 mph57%29.71 "Hg10 mi
4:00 PM77 °FSunny.13 mph54%29.71 "Hg10 mi
3:30 PM79 °FPassing clouds.10 mph54%29.71 "HgN/A
3:00 PM79 °FPartly sunny.13 mph54%29.71 "HgN/A
2:30 PM77 °FPartly sunny.17 mph54%29.74 "HgN/A
2:00 PM79 °FSunny.15 mph54%29.71 "Hg10 mi
1:30 PM81 °FSunny.15 mph48%29.71 "Hg10 mi
1:00 PM81 °FSunny.13 mph45%29.71 "Hg10 mi
12:30 PM81 °FSunny.13 mph45%29.71 "Hg10 mi
12:00 PM81 °FSunny.13 mph45%29.71 "Hg10 mi
11:30 AM79 °FSunny.13 mph48%29.74 "Hg10 mi
11:00 AM77 °FSunny.10 mph54%29.74 "Hg10 mi
10:30 AM75 °FSunny.8 mph61%29.74 "Hg10 mi
10:00 AM73 °FSunny.8 mph65%29.77 "Hg10 mi
9:30 AM72 °FSunny.6 mph69%29.77 "Hg10 mi
9:00 AM72 °FSunny.8 mph65%29.77 "Hg10 mi
8:30 AM68 °FSunny.8 mph73%29.77 "Hg10 mi
8:00 AM66 °FSunny.13 mph78%29.77 "Hg10 mi
7:30 AM64 °FSunny.10 mph83%29.77 "Hg10 mi
7:00 AM63 °FClear.10 mph88%29.77 "Hg10 mi
6:30 AM61 °FClear.13 mph88%29.77 "Hg10 mi
6:00 AM61 °FClear.13 mph88%29.77 "Hg10 mi
5:30 AM59 °FClear.8 mph94%29.77 "Hg10 mi
5:00 AM61 °FClear.8 mph88%29.77 "Hg10 mi
4:30 AM59 °FClear.8 mph94%29.77 "Hg10 mi
4:00 AM61 °FClear.8 mph88%29.77 "Hg10 mi
3:30 AM61 °FClear.8 mph88%29.77 "Hg10 mi
2:30 AM59 °FClear.6 mph94%29.80 "Hg10 mi
2:00 AM59 °FClear.8 mph94%29.80 "Hg10 mi
1:30 AM61 °FClear.8 mph88%29.80 "Hg10 mi
1:00 AM59 °FClear.6 mph94%29.80 "Hg10 mi
12:00 AM59 °FClear.6 mph88%29.83 "Hg10 mi
11:00 PM
Wed, Jul 29
61 °FSunny.3 mph83%29.83 "Hg10 mi
10:30 PM64 °FSunny.3 mph78%29.83 "Hg10 mi
10:00 PM64 °FSunny.1 mph83%29.83 "Hg10 mi
9:30 PM66 °FSunny.No wind73%29.83 "Hg10 mi
9:00 PM68 °FSunny.No wind64%29.83 "Hg10 mi
8:30 PM70 °FSunny.No wind60%29.83 "Hg10 mi
8:00 PM72 °FSunny.No wind53%29.83 "Hg10 mi
7:30 PM73 °FSunny.No wind50%29.83 "Hg10 mi
7:00 PM73 °FSunny.3 mph50%29.86 "Hg10 mi
6:30 PM73 °FSunny.6 mph47%29.86 "Hg10 mi
6:00 PM73 °FSunny.6 mph50%29.86 "Hg10 mi
5:30 PM73 °FSunny.8 mph50%29.86 "Hg10 mi
5:00 PM73 °FPassing clouds.6 mph50%29.86 "HgN/A
Weather by CustomWeather, © 2015

See weather overviewHow to use our weather pages